Powrót do katalogu

KUIPER-00069

AktywnyŁącznośćLEO
NORAD 64816·PAYLOAD·🇺🇸 United States

Wystrzelony Jul 16, 2025 z Cape Canaveral Space Force Station

Loading…

Następne Przeloty (najbliższe 24 godziny)

TLE

ŚwieżeSource: CelesTrak SupGP

Epoka: Sep 14, 2026, 20:31 UTC

1 64816C 25151A   26257.85498843 -.00000520  00000+0 -68111-4 0  2576
2 64816  51.9003 164.1655 0000857  94.7922 210.9135 14.79931410    17

Śledź KUIPER-00069 w czasie rzeczywistym z AllMySat

Download on the App Store